| time (UTC) | temp F | wind direction | speed MPH | gust MPH | rain 1hr in | rain 24hr in | rain mn in | humidity % | barometer mb |
| 20260506201741 | 66 | 124 | 3.0 | 6.0 | 0.00 | 0.10 | 0.10 | 75 | 1007.7 |
| 20260506201238 | 66 | 92 | 4.0 | 6.0 | 0.00 | 0.10 | 0.10 | 76 | 1007.7 |
| 20260506200735 | 67 | 198 | 2.0 | 3.0 | 0.00 | 0.10 | 0.10 | 75 | 1007.8 |
| 20260506200231 | 67 | 176 | 3.0 | 3.0 | 0.00 | 0.10 | 0.10 | 75 | 1007.6 |
| 20260506195728 | 66 | 166 | 1.0 | 2.0 | 0.00 | 0.10 | 0.10 | 76 | 1007.8 |
| 20260506195224 | 66 | 133 | 2.0 | 2.0 | 0.00 | 0.10 | 0.10 | 76 | 1007.8 |
| 20260506194722 | 66 | 92 | 1.0 | 2.0 | 0.00 | 0.10 | 0.10 | 76 | 1007.9 |
| 20260506194218 | 65 | 274 | 2.0 | 2.0 | 0.00 | 0.10 | 0.10 | 78 | 1007.9 |
| 20260506193716 | 65 | 216 | 2.0 | 2.0 | 0.00 | 0.10 | 0.10 | 78 | 1008.0 |
| 20260506193213 | 65 | 127 | 2.0 | 2.0 | 0.00 | 0.10 | 0.10 | 78 | 1008.2 |
| 20260506192709 | 64 | 133 | 2.0 | 2.0 | 0.00 | 0.10 | 0.10 | 79 | 1008.1 |
| 20260506192206 | 64 | 339 | 1.0 | 1.0 | 0.00 | 0.10 | 0.10 | 79 | 1008.2 |
| 20260506191703 | 64 | 242 | 2.0 | 4.0 | 0.00 | 0.10 | 0.10 | 79 | 1008.2 |
| 20260506191158 | 64 | 178 | 3.0 | 8.0 | 0.00 | 0.10 | 0.10 | 79 | 1008.4 |
| 20260506190656 | 64 | 146 | 4.0 | 6.0 | 0.00 | 0.10 | 0.10 | 79 | 1008.4 |
| 20260506190153 | 64 | 355 | 1.0 | 2.0 | 0.00 | 0.10 | 0.10 | 79 | 1008.5 |
| 20260506185650 | 64 | 212 | 3.0 | 4.0 | 0.00 | 0.10 | 0.10 | 79 | 1008.4 |
| 20260506185146 | 64 | 235 | 3.0 | 4.0 | 0.00 | 0.10 | 0.10 | 79 | 1008.5 |
| 20260506184644 | 64 | 348 | 2.0 | 3.0 | 0.00 | 0.10 | 0.10 | 79 | 1008.5 |
| 20260506184141 | 64 | 353 | 3.0 | 7.0 | 0.00 | 0.10 | 0.10 | 80 | 1008.7 |
| 20260506183637 | 64 | 253 | 2.0 | 4.0 | 0.00 | 0.10 | 0.10 | 80 | 1008.6 |
| 20260506183133 | 64 | 233 | 2.0 | 4.0 | 0.00 | 0.10 | 0.10 | 80 | 1008.6 |
| 20260506182631 | 64 | 227 | 2.0 | 3.0 | 0.00 | 0.10 | 0.10 | 80 | 1008.6 |
| 20260506182128 | 64 | 138 | 0.0 | 1.0 | 0.00 | 0.10 | 0.10 | 79 | 1008.8 |
| 20260506181626 | 64 | 128 | 0.0 | 1.0 | 0.00 | 0.10 | 0.10 | 79 | 1008.6 |
| 20260506181123 | 64 | 202 | 2.0 | 4.0 | 0.00 | 0.10 | 0.10 | 79 | 1008.6 |
| 20260506180619 | 64 | 176 | 3.0 | 6.0 | 0.00 | 0.10 | 0.10 | 79 | 1008.7 |
| 20260506180116 | 64 | 124 | 1.0 | 2.0 | 0.00 | 0.10 | 0.10 | 80 | 1008.7 |
| 20260506175612 | 64 | 331 | 3.0 | 4.0 | 0.00 | 0.10 | 0.10 | 80 | 1008.8 |
| 20260506175108 | 64 | 48 | 4.0 | 7.0 | 0.00 | 0.10 | 0.10 | 79 | 1008.7 |
| 20260506174608 | 64 | 224 | 2.0 | 2.0 | 0.00 | 0.10 | 0.10 | 80 | 1008.9 |
| 20260506174103 | 64 | 192 | 1.0 | 1.0 | 0.00 | 0.10 | 0.10 | 81 | 1009.0 |
| 20260506173601 | 63 | 217 | 4.0 | 4.0 | 0.00 | 0.10 | 0.10 | 80 | 1009.1 |
| 20260506173058 | 63 | 108 | 2.0 | 2.0 | 0.00 | 0.10 | 0.10 | 81 | 1009.0 |
| 20260506172555 | 64 | 64 | 5.0 | 7.0 | 0.00 | 0.10 | 0.10 | 80 | 1009.2 |
| 20260506172051 | 64 | 199 | 3.0 | 4.0 | 0.00 | 0.10 | 0.10 | 81 | 1009.0 |
| 20260506171549 | 64 | 315 | 6.0 | 9.0 | 0.00 | 0.10 | 0.10 | 81 | 1008.9 |
| 20260506171047 | 64 | 144 | 4.0 | 4.0 | 0.00 | 0.10 | 0.10 | 81 | 1009.0 |
| 20260506170544 | 64 | 114 | 2.0 | 2.0 | 0.00 | 0.10 | 0.10 | 84 | 1008.9 |
| 20260506170041 | 64 | 179 | 3.0 | 4.0 | 0.00 | 0.10 | 0.10 | 83 | 1009.1 |
| 20260506165539 | 64 | 10 | 1.0 | 2.0 | 0.00 | 0.10 | 0.10 | 83 | 1009.0 |
| 20260506165035 | 63 | 202 | 2.0 | 3.0 | 0.00 | 0.10 | 0.10 | 84 | 1009.0 |
| 20260506164532 | 63 | 94 | 1.0 | 1.0 | 0.00 | 0.10 | 0.10 | 85 | 1009.2 |
| 20260506164030 | 63 | 148 | 2.0 | 3.0 | 0.05 | 0.10 | 0.10 | 85 | 1009.2 |
| 20260506163525 | 63 | 206 | 4.0 | 4.0 | 0.05 | 0.10 | 0.10 | 85 | 1009.0 |
| 20260506163021 | 63 | 131 | 2.0 | 3.0 | 0.00 | 0.09 | 0.09 | 86 | 1009.2 |
| 20260506162518 | 62 | 149 | 0.0 | 1.0 | 0.00 | 0.09 | 0.09 | 86 | 1009.5 |
| 20260506162015 | 62 | 130 | 0.0 | 0.0 | 0.07 | 0.09 | 0.09 | 86 | 1010.0 |
| 20260506161513 | 62 | 119 | 2.0 | 2.0 | 0.12 | 0.09 | 0.09 | 85 | 1010.1 |
| 20260506161010 | 62 | 170 | 1.0 | 3.0 | 0.05 | 0.08 | 0.08 | 83 | 1010.2 |
| 20260506160508 | 63 | 190 | 3.0 | 3.0 | 0.07 | 0.07 | 0.07 | 83 | 1010.4 |
| 20260506160005 | 63 | 113 | 2.0 | 4.0 | 0.12 | 0.07 | 0.07 | 82 | 1010.5 |
| 20260506155503 | 63 | 136 | 0.0 | 1.0 | 0.05 | 0.06 | 0.06 | 83 | 1010.4 |
| 20260506153634 | 63 | 149 | 0.0 | 0.0 | 0.07 | 0.03 | 0.03 | 82 | 1010.4 |
| 20260506153131 | 63 | 198 | 1.0 | 2.0 | 0.12 | 0.03 | 0.03 | 81 | 1010.3 |
| 20260506152628 | 64 | 128 | 1.0 | 2.0 | 0.12 | 0.02 | 0.02 | 79 | 1010.3 |
| 20260506152126 | 64 | 135 | 2.0 | 3.0 | 0.07 | 0.01 | 0.01 | 77 | 1010.3 |
| 20260506151624 | 65 | 199 | 2.0 | 2.0 | 0.00 | 0.00 | 0.00 | 75 | 1010.5 |
| 20260506151121 | 66 | 162 | 1.0 | 1.0 | 0.00 | 0.00 | 0.00 | 74 | 1010.2 |
| 20260506150618 | 66 | 13 | 1.0 | 4.0 | 0.00 | 0.00 | 0.00 | 73 | 1010.1 |
| 20260506150115 | 66 | 138 | 0.0 | 1.0 | 0.00 | 0.00 | 0.00 | 73 | 1009.9 |
| 20260506145612 | 66 | 208 | 2.0 | 3.0 | 0.00 | 0.00 | 0.00 | 72 | 1010.1 |
| 20260506145108 | 66 | 175 | 4.0 | 4.0 | 0.00 | 0.00 | 0.00 | 72 | 1010.2 |
| 20260506144605 | 67 | 203 | 1.0 | 2.0 | 0.00 | 0.00 | 0.00 | 72 | 1010.6 |
| 20260506144102 | 67 | 157 | 2.0 | 3.0 | 0.00 | 0.00 | 0.00 | 70 | 1010.4 |
| 20260506143600 | 68 | 244 | 5.0 | 6.0 | 0.00 | 0.00 | 0.00 | 68 | 1010.3 |
| 20260506143058 | 68 | 133 | 1.0 | 1.0 | 0.00 | 0.00 | 0.00 | 67 | 1010.6 |
| 20260506142555 | 68 | 191 | 2.0 | 2.0 | 0.00 | 0.00 | 0.00 | 67 | 1010.3 |
| 20260506142054 | 68 | 100 | 1.0 | 1.0 | 0.00 | 0.00 | 0.00 | 67 | 1010.4 |
| 20260506141551 | 68 | 25 | 3.0 | 4.0 | 0.00 | 0.00 | 0.00 | 66 | 1010.3 |
| 20260506141049 | 68 | 227 | 4.0 | 4.0 | 0.00 | 0.00 | 0.00 | 66 | 1010.4 |
| 20260506140546 | 69 | 278 | 2.0 | 2.0 | 0.00 | 0.00 | 0.00 | 67 | 1010.2 |
| 20260506140044 | 69 | 159 | 4.0 | 6.0 | 0.00 | 0.00 | 0.00 | 65 | 1010.3 |
| 20260506135540 | 69 | 129 | 2.0 | 4.0 | 0.00 | 0.00 | 0.00 | 66 | 1010.2 |
| 20260506135036 | 68 | 244 | 4.0 | 4.0 | 0.00 | 0.00 | 0.00 | 66 | 1010.1 |
| 20260506134533 | 68 | 155 | 1.0 | 1.0 | 0.00 | 0.00 | 0.00 | 68 | 1010.3 |
| 20260506134029 | 68 | 170 | 5.0 | 7.0 | 0.00 | 0.00 | 0.00 | 68 | 1010.4 |
| 20260506133526 | 67 | 209 | 2.0 | 2.0 | 0.00 | 0.00 | 0.00 | 68 | 1010.3 |
| 20260506133023 | 67 | 194 | 5.0 | 7.0 | 0.00 | 0.00 | 0.00 | 68 | 1010.2 |
| 20260506132520 | 67 | 188 | 5.0 | 7.0 | 0.00 | 0.00 | 0.00 | 68 | 1010.6 |
| 20260506132018 | 67 | 142 | 2.0 | 3.0 | 0.00 | 0.00 | 0.00 | 68 | 1010.2 |
| 20260506131515 | 67 | 210 | 2.0 | 2.0 | 0.00 | 0.00 | 0.00 | 69 | 1010.6 |
| 20260506131011 | 67 | 85 | 2.0 | 3.0 | 0.00 | 0.00 | 0.00 | 69 | 1010.6 |
| 20260506130508 | 67 | 131 | 2.0 | 2.0 | 0.00 | 0.00 | 0.00 | 69 | 1010.8 |
| 20260506130006 | 68 | 161 | 2.0 | 4.0 | 0.00 | 0.00 | 0.00 | 68 | 1010.6 |
| 20260506125504 | 68 | 148 | 2.0 | 3.0 | 0.00 | 0.00 | 0.00 | 68 | 1010.6 |
| 20260506125001 | 68 | 213 | 1.0 | 1.0 | 0.00 | 0.00 | 0.00 | 68 | 1010.5 |
| 20260506124459 | 67 | 229 | 4.0 | 7.0 | 0.00 | 0.00 | 0.00 | 70 | 1010.5 |
| 20260506123957 | 66 | 315 | 2.0 | 2.0 | 0.00 | 0.00 | 0.00 | 71 | 1010.7 |
| 20260506123454 | 67 | 199 | 2.0 | 3.0 | 0.00 | 0.00 | 0.00 | 70 | 1010.5 |
| 20260506122952 | 67 | 289 | 4.0 | 6.0 | 0.00 | 0.00 | 0.00 | 70 | 1010.4 |
| 20260506122448 | 67 | 342 | 1.0 | 2.0 | 0.00 | 0.00 | 0.00 | 70 | 1010.4 |
| 20260506121947 | 66 | 258 | 2.0 | 3.0 | 0.00 | 0.00 | 0.00 | 70 | 1010.3 |
| 20260506121443 | 66 | 109 | 1.0 | 1.0 | 0.00 | 0.00 | 0.00 | 71 | 1010.3 |
| 20260506120940 | 66 | 115 | 4.0 | 7.0 | 0.00 | 0.00 | 0.00 | 71 | 1010.4 |
| 20260506120438 | 66 | 176 | 7.0 | 9.0 | 0.00 | 0.00 | 0.00 | 72 | 1010.5 |
| 20260506115935 | 65 | 183 | 2.0 | 3.0 | 0.00 | 0.00 | 0.00 | 73 | 1010.4 |
| 20260506115433 | 65 | 198 | 1.0 | 3.0 | 0.00 | 0.00 | 0.00 | 72 | 1010.4 |
| 20260506114931 | 65 | 188 | 2.0 | 3.0 | 0.00 | 0.00 | 0.00 | 72 | 1010.5 |
| 20260506114428 | 65 | 176 | 3.0 | 3.0 | 0.00 | 0.00 | 0.00 | 73 | 1010.6 |
| 20260506113927 | 65 | 196 | 5.0 | 8.0 | 0.00 | 0.00 | 0.00 | 72 | 1010.4 |
| 20260506113424 | 65 | 167 | 3.0 | 4.0 | 0.00 | 0.00 | 0.00 | 73 | 1010.5 |
| 20260506112920 | 65 | 178 | 0.0 | 1.0 | 0.00 | 0.00 | 0.00 | 73 | 1010.4 |
| 20260506112418 | 65 | 201 | 4.0 | 4.0 | 0.00 | 0.00 | 0.00 | 74 | 1010.6 |
| 20260506111915 | 65 | 80 | 4.0 | 7.0 | 0.00 | 0.00 | 0.00 | 73 | 1010.5 |
| 20260506111413 | 65 | 168 | 6.0 | 8.0 | 0.00 | 0.00 | 0.00 | 73 | 1010.7 |
| 20260506110910 | 65 | 232 | 2.0 | 3.0 | 0.00 | 0.00 | 0.00 | 73 | 1010.4 |
| 20260506110408 | 65 | 229 | 2.0 | 3.0 | 0.00 | 0.00 | 0.00 | 74 | 1010.4 |
| 20260506105904 | 65 | 131 | 1.0 | 1.0 | 0.00 | 0.00 | 0.00 | 74 | 1010.4 |
| 20260506105400 | 65 | 137 | 2.0 | 2.0 | 0.00 | 0.00 | 0.00 | 74 | 1010.2 |
| 20260506104858 | 64 | 241 | 3.0 | 4.0 | 0.00 | 0.00 | 0.00 | 74 | 1010.3 |
| 20260506104356 | 65 | 224 | 2.0 | 2.0 | 0.00 | 0.00 | 0.00 | 74 | 1010.3 |
| 20260506103853 | 65 | 186 | 4.0 | 6.0 | 0.00 | 0.00 | 0.00 | 74 | 1010.3 |
| 20260506103351 | 64 | 259 | 2.0 | 3.0 | 0.00 | 0.00 | 0.00 | 74 | 1010.3 |
| 20260506102848 | 64 | 317 | 1.0 | 2.0 | 0.00 | 0.00 | 0.00 | 74 | 1010.1 |
| 20260506102346 | 64 | 227 | 1.0 | 1.0 | 0.00 | 0.00 | 0.00 | 75 | 1010.3 |
| 20260506101843 | 64 | 231 | 3.0 | 4.0 | 0.00 | 0.00 | 0.00 | 74 | 1010.1 |
| 20260506101339 | 64 | 98 | 1.0 | 2.0 | 0.00 | 0.00 | 0.00 | 75 | 1010.1 |
| 20260506100837 | 64 | 164 | 1.0 | 1.0 | 0.00 | 0.00 | 0.00 | 75 | 1010.3 |
| 20260506100335 | 64 | 216 | 2.0 | 3.0 | 0.00 | 0.00 | 0.00 | 75 | 1010.3 |
| 20260506095833 | 64 | 247 | 3.0 | 6.0 | 0.00 | 0.00 | 0.00 | 75 | 1010.3 |
| 20260506095330 | 64 | 201 | 5.0 | 8.0 | 0.00 | 0.00 | 0.00 | 75 | 1010.2 |
| 20260506094826 | 64 | 174 | 3.0 | 4.0 | 0.00 | 0.00 | 0.00 | 75 | 1010.3 |
| 20260506094325 | 64 | 189 | 2.0 | 3.0 | 0.00 | 0.00 | 0.00 | 75 | 1009.9 |
| 20260506093823 | 64 | 250 | 5.0 | 6.0 | 0.00 | 0.00 | 0.00 | 74 | 1010.1 |
| 20260506093320 | 64 | 230 | 3.0 | 4.0 | 0.00 | 0.00 | 0.00 | 75 | 1010.1 |
| 20260506092818 | 64 | 169 | 3.0 | 3.0 | 0.00 | 0.00 | 0.00 | 75 | 1010.0 |
| 20260506092315 | 65 | 342 | 3.0 | 4.0 | 0.00 | 0.00 | 0.00 | 74 | 1009.9 |
| 20260506091812 | 64 | 242 | 1.0 | 2.0 | 0.00 | 0.00 | 0.00 | 74 | 1010.0 |
| 20260506091310 | 65 | 140 | 2.0 | 3.0 | 0.00 | 0.00 | 0.00 | 74 | 1010.0 |
| 20260506090807 | 65 | 121 | 4.0 | 6.0 | 0.00 | 0.00 | 0.00 | 74 | 1010.1 |
| 20260506090304 | 65 | 36 | 1.0 | 2.0 | 0.00 | 0.00 | 0.00 | 74 | 1010.1 |
| 20260506085801 | 65 | 169 | 5.0 | 6.0 | 0.00 | 0.00 | 0.00 | 74 | 1010.2 |
| 20260506085257 | 65 | 124 | 2.0 | 3.0 | 0.00 | 0.00 | 0.00 | 74 | 1010.4 |
| 20260506084754 | 65 | 133 | 1.0 | 1.0 | 0.00 | 0.00 | 0.00 | 75 | 1010.1 |
| 20260506084250 | 64 | 154 | 0.0 | 1.0 | 0.00 | 0.00 | 0.00 | 75 | 1010.3 |
| 20260506083747 | 64 | 138 | 2.0 | 3.0 | 0.00 | 0.00 | 0.00 | 75 | 1010.2 |
| 20260506083245 | 65 | 130 | 1.0 | 2.0 | 0.00 | 0.00 | 0.00 | 75 | 1010.4 |
| 20260506082742 | 65 | 155 | 1.0 | 2.0 | 0.00 | 0.00 | 0.00 | 75 | 1010.3 |
| 20260506082237 | 65 | 129 | 1.0 | 2.0 | 0.00 | 0.00 | 0.00 | 75 | 1010.4 |
| 20260506081736 | 64 | 287 | 2.0 | 3.0 | 0.00 | 0.00 | 0.00 | 75 | 1010.5 |
| 20260506081233 | 65 | 214 | 2.0 | 3.0 | 0.00 | 0.00 | 0.00 | 75 | 1010.5 |
| 20260506080731 | 65 | 212 | 2.0 | 3.0 | 0.00 | 0.00 | 0.00 | 74 | 1010.6 |
| 20260506080227 | 65 | 182 | 0.0 | 1.0 | 0.00 | 0.00 | 0.00 | 75 | 1010.5 |
| 20260506073211 | 66 | 2 | 1.0 | 1.0 | 0.00 | 0.00 | 0.00 | 73 | 1010.5 |
| 20260506072708 | 66 | 129 | 1.0 | 1.0 | 0.00 | 0.00 | 0.00 | 73 | 1010.6 |
| 20260506072205 | 67 | 148 | 1.0 | 2.0 | 0.00 | 0.00 | 0.00 | 72 | 1010.5 |
| 20260506071702 | 66 | 192 | 1.0 | 2.0 | 0.00 | 0.00 | 0.00 | 72 | 1010.7 |
| 20260506071200 | 66 | 136 | 2.0 | 3.0 | 0.00 | 0.00 | 0.00 | 72 | 1010.6 |
| 20260506070657 | 67 | 18 | 2.0 | 4.0 | 0.00 | 0.00 | 0.00 | 72 | 1010.5 |
| 20260506070154 | 66 | 184 | 2.0 | 2.0 | 0.00 | 0.00 | 0.00 | 72 | 1010.5 |
| 20260506062131 | 67 | 137 | 4.0 | 6.0 | 0.00 | 0.00 | 0.00 | 71 | 1010.8 |
| 20260506061627 | 67 | 164 | 6.0 | 10.0 | 0.00 | 0.00 | 0.00 | 71 | 1010.9 |
| 20260506061125 | 67 | 263 | 5.0 | 7.0 | 0.00 | 0.00 | 0.00 | 71 | 1011.0 |
| 20260506060623 | 67 | 247 | 3.0 | 3.0 | 0.00 | 0.00 | 0.00 | 71 | 1010.9 |
| 20260506060120 | 67 | 229 | 2.0 | 3.0 | 0.00 | 0.00 | 0.00 | 71 | 1010.8 |
| 20260506051052 | 68 | 83 | 3.0 | 3.0 | 0.00 | 0.00 | 0.00 | 67 | 1011.1 |
| 20260506050549 | 68 | 218 | 4.0 | 4.0 | 0.00 | 0.00 | 0.00 | 67 | 1011.2 |
| 20260506045040 | 68 | 170 | 3.0 | 4.0 | 0.00 | 0.00 | 0.00 | 67 | 1011.4 |
| 20260506044538 | 68 | 240 | 2.0 | 2.0 | 0.00 | 0.00 | 0.00 | 66 | 1011.1 |
| 20260506044034 | 68 | 167 | 4.0 | 4.0 | 0.00 | 0.00 | 0.00 | 66 | 1011.4 |
| 20260506043532 | 68 | 169 | 2.0 | 3.0 | 0.00 | 0.00 | 0.00 | 66 | 1011.2 |
| 20260506043030 | 68 | 135 | 2.0 | 4.0 | 0.00 | 0.00 | 0.00 | 66 | 1011.4 |
| 20260506042529 | 68 | 199 | 2.0 | 3.0 | 0.00 | 0.00 | 0.00 | 65 | 1011.4 |
| 20260506042027 | 68 | 286 | 2.0 | 3.0 | 0.00 | 0.00 | 0.00 | 65 | 1011.3 |
| 20260506041525 | 69 | 178 | 2.0 | 3.0 | 0.00 | 0.00 | 0.00 | 64 | 1011.2 |
| 20260506041021 | 68 | 274 | 3.0 | 6.0 | 0.00 | 0.00 | 0.00 | 64 | 1011.4 |
| 20260506040519 | 69 | 161 | 2.0 | 2.0 | 0.00 | 0.00 | 0.00 | 63 | 1011.3 |
| 20260506040015 | 69 | 223 | 3.0 | 4.0 | 0.00 | 0.00 | 0.00 | 63 | 1011.2 |
| 20260506035512 | 69 | 333 | 2.0 | 4.0 | 0.00 | 0.00 | 0.00 | 62 | 1011.2 |
| 20260506035008 | 69 | 239 | 2.0 | 3.0 | 0.00 | 0.00 | 0.00 | 62 | 1011.0 |
| 20260506034506 | 69 | 201 | 2.0 | 3.0 | 0.00 | 0.00 | 0.00 | 61 | 1011.1 |
| 20260506034003 | 69 | 149 | 8.0 | 9.0 | 0.00 | 0.00 | 0.00 | 61 | 1011.3 |
| 20260506033500 | 69 | 145 | 5.0 | 9.0 | 0.00 | 0.00 | 0.00 | 60 | 1011.1 |
| 20260506032957 | 69 | 178 | 3.0 | 4.0 | 0.00 | 0.00 | 0.00 | 61 | 1011.1 |
| 20260506032455 | 70 | 136 | 3.0 | 6.0 | 0.00 | 0.00 | 0.00 | 60 | 1011.2 |
| 20260506031950 | 70 | 188 | 3.0 | 3.0 | 0.00 | 0.00 | 0.00 | 60 | 1011.0 |
| 20260506031448 | 70 | 160 | 4.0 | 4.0 | 0.00 | 0.00 | 0.00 | 59 | 1011.2 |
| 20260506030946 | 70 | 282 | 3.0 | 6.0 | 0.00 | 0.00 | 0.00 | 59 | 1011.1 |
| 20260506030444 | 70 | 183 | 1.0 | 2.0 | 0.00 | 0.00 | 0.00 | 59 | 1011.3 |
| 20260506025940 | 70 | 112 | 3.0 | 7.0 | 0.00 | 0.00 | 0.00 | 59 | 1011.3 |
| 20260506025437 | 70 | 271 | 4.0 | 6.0 | 0.00 | 0.00 | 0.00 | 59 | 1011.1 |
| 20260506024934 | 69 | 244 | 2.0 | 4.0 | 0.00 | 0.00 | 0.00 | 59 | 1011.2 |
| 20260506024431 | 70 | 183 | 0.0 | 0.0 | 0.00 | 0.00 | 0.00 | 59 | 1011.1 |
| 20260506023926 | 70 | 31 | 2.0 | 4.0 | 0.00 | 0.00 | 0.00 | 58 | 1011.5 |
| 20260506023424 | 70 | 206 | 2.0 | 3.0 | 0.00 | 0.00 | 0.00 | 59 | 1011.2 |
| 20260506022920 | 70 | 210 | 1.0 | 2.0 | 0.00 | 0.00 | 0.00 | 59 | 1011.3 |
| 20260506022418 | 70 | 324 | 2.0 | 2.0 | 0.00 | 0.00 | 0.00 | 59 | 1011.4 |
| 20260506021915 | 70 | 82 | 1.0 | 1.0 | 0.00 | 0.00 | 0.00 | 59 | 1011.6 |
| 20260506021413 | 70 | 192 | 1.0 | 3.0 | 0.00 | 0.00 | 0.00 | 59 | 1011.3 |
| 20260506020909 | 70 | 178 | 3.0 | 3.0 | 0.00 | 0.00 | 0.00 | 58 | 1011.4 |
| 20260506020408 | 70 | 122 | 3.0 | 6.0 | 0.00 | 0.00 | 0.00 | 58 | 1011.4 |
| 20260506015904 | 70 | 79 | 2.0 | 4.0 | 0.00 | 0.00 | 0.00 | 58 | 1011.5 |
| 20260506015402 | 71 | 105 | 2.0 | 3.0 | 0.00 | 0.00 | 0.00 | 57 | 1011.3 |
| 20260506014859 | 71 | 178 | 2.0 | 2.0 | 0.00 | 0.00 | 0.00 | 57 | 1011.3 |
| 20260506014355 | 71 | 226 | 3.0 | 4.0 | 0.00 | 0.00 | 0.00 | 56 | 1011.4 |
| 20260506013852 | 71 | 211 | 2.0 | 2.0 | 0.00 | 0.00 | 0.00 | 56 | 1011.2 |
| 20260506013350 | 71 | 123 | 2.0 | 2.0 | 0.00 | 0.00 | 0.00 | 55 | 1011.1 |
| 20260506012846 | 72 | 44 | 3.0 | 4.0 | 0.00 | 0.00 | 0.00 | 54 | 1011.1 |
| 20260506012343 | 72 | 340 | 1.0 | 3.0 | 0.00 | 0.00 | 0.00 | 52 | 1011.2 |
| 20260506011840 | 73 | 137 | 0.0 | 0.0 | 0.00 | 0.00 | 0.00 | 51 | 1010.9 |
| 20260506011337 | 73 | 118 | 1.0 | 1.0 | 0.00 | 0.00 | 0.00 | 49 | 1011.1 |
| 20260506010834 | 73 | 284 | 1.0 | 2.0 | 0.00 | 0.00 | 0.00 | 49 | 1011.0 |
| 20260506010332 | 74 | 91 | 2.0 | 3.0 | 0.00 | 0.00 | 0.00 | 48 | 1010.9 |
| 20260506005829 | 74 | 158 | 4.0 | 7.0 | 0.00 | 0.00 | 0.00 | 47 | 1010.7 |
| 20260506005326 | 74 | 161 | 4.0 | 6.0 | 0.00 | 0.00 | 0.00 | 46 | 1010.9 |
| 20260506004821 | 74 | 299 | 3.0 | 4.0 | 0.00 | 0.00 | 0.00 | 46 | 1010.9 |
| 20260506004319 | 75 | 231 | 3.0 | 3.0 | 0.00 | 0.00 | 0.00 | 45 | 1010.7 |
| 20260506003815 | 75 | 107 | 0.0 | 1.0 | 0.00 | 0.00 | 0.00 | 44 | 1010.7 |
| 20260506003312 | 75 | 181 | 7.0 | 11.0 | 0.00 | 0.00 | 0.00 | 43 | 1010.6 |
| 20260506002808 | 76 | 191 | 1.0 | 1.0 | 0.00 | 0.00 | 0.00 | 42 | 1010.5 |
| 20260506002306 | 76 | 169 | 4.0 | 6.0 | 0.00 | 0.00 | 0.00 | 41 | 1010.5 |
| 20260506001800 | 76 | 239 | 2.0 | 3.0 | 0.00 | 0.00 | 0.00 | 41 | 1010.5 |
| 20260506001258 | 77 | 118 | 1.0 | 2.0 | 0.00 | 0.00 | 0.00 | 41 | 1010.4 |
| 20260506000754 | 77 | 186 | 6.0 | 10.0 | 0.00 | 0.00 | 0.00 | 41 | 1010.2 |
| 20260506000254 | 77 | 255 | 2.0 | 2.0 | 0.00 | 0.00 | 0.00 | 42 | 1010.4 |
| 20260505235749 | 77 | 242 | 3.0 | 4.0 | 0.00 | 0.00 | 0.00 | 41 | 1010.2 |
| 20260505235246 | 77 | 117 | 4.0 | 7.0 | 0.00 | 0.00 | 0.00 | 41 | 1010.2 |
| 20260505234743 | 77 | 150 | 1.0 | 1.0 | 0.00 | 0.00 | 0.00 | 43 | 1010.3 |
| 20260505234241 | 77 | 169 | 2.0 | 3.0 | 0.00 | 0.00 | 0.00 | 42 | 1010.2 |
| 20260505233737 | 77 | 176 | 2.0 | 2.0 | 0.00 | 0.00 | 0.00 | 42 | 1010.2 |
| 20260505233236 | 77 | 247 | 3.0 | 3.0 | 0.00 | 0.00 | 0.00 | 42 | 1010.3 |
| 20260505232732 | 77 | 130 | 3.0 | 4.0 | 0.00 | 0.00 | 0.00 | 41 | 1010.2 |
| 20260505232230 | 77 | 204 | 1.0 | 2.0 | 0.00 | 0.00 | 0.00 | 42 | 1009.9 |
| 20260505231726 | 78 | 268 | 3.0 | 4.0 | 0.00 | 0.00 | 0.00 | 42 | 1010.0 |
| 20260505231225 | 78 | 189 | 4.0 | 6.0 | 0.00 | 0.00 | 0.00 | 41 | 1010.0 |
| 20260505230723 | 78 | 161 | 2.0 | 3.0 | 0.00 | 0.00 | 0.00 | 41 | 1010.1 |
| 20260505230219 | 78 | 294 | 3.0 | 3.0 | 0.00 | 0.00 | 0.00 | 41 | 1010.0 |
| 20260505225716 | 78 | 256 | 5.0 | 7.0 | 0.00 | 0.00 | 0.00 | 40 | 1010.0 |
| 20260505225213 | 79 | 195 | 3.0 | 4.0 | 0.00 | 0.00 | 0.00 | 41 | 1009.9 |
| 20260505224708 | 79 | 264 | 2.0 | 3.0 | 0.00 | 0.00 | 0.00 | 39 | 1009.8 |
| 20260505224206 | 80 | 124 | 4.0 | 6.0 | 0.00 | 0.00 | 0.00 | 38 | 1009.8 |
| 20260505223704 | 80 | 251 | 1.0 | 2.0 | 0.00 | 0.00 | 0.00 | 38 | 1009.8 |
| 20260505223159 | 80 | 204 | 2.0 | 2.0 | 0.00 | 0.00 | 0.00 | 37 | 1009.7 |
| 20260505222655 | 80 | 286 | 6.0 | 9.0 | 0.00 | 0.00 | 0.00 | 36 | 1009.6 |
| 20260505222152 | 80 | 232 | 4.0 | 7.0 | 0.00 | 0.00 | 0.00 | 36 | 1009.6 |
| 20260505221649 | 80 | 18 | 6.0 | 11.0 | 0.00 | 0.00 | 0.00 | 35 | 1009.8 |
| 20260505221145 | 80 | 135 | 3.0 | 4.0 | 0.00 | 0.00 | 0.00 | 34 | 1009.5 |
| 20260505220643 | 80 | 313 | 4.0 | 4.0 | 0.00 | 0.00 | 0.00 | 35 | 1009.6 |
| 20260505220140 | 81 | 172 | 3.0 | 4.0 | 0.00 | 0.00 | 0.00 | 35 | 1009.8 |
| 20260505215638 | 81 | 209 | 9.0 | 11.0 | 0.00 | 0.00 | 0.00 | 34 | 1009.6 |
| 20260505215136 | 82 | 190 | 1.0 | 2.0 | 0.00 | 0.00 | 0.00 | 34 | 1009.6 |
| 20260505214634 | 82 | 254 | 7.0 | 9.0 | 0.00 | 0.00 | 0.00 | 33 | 1009.3 |
| 20260505214130 | 81 | 275 | 5.0 | 7.0 | 0.00 | 0.00 | 0.00 | 33 | 1009.4 |
| 20260505213628 | 81 | 149 | 2.0 | 3.0 | 0.00 | 0.00 | 0.00 | 34 | 1009.6 |
| 20260505213124 | 81 | 163 | 5.0 | 8.0 | 0.00 | 0.00 | 0.00 | 33 | 1009.4 |
| 20260505212620 | 82 | 126 | 4.0 | 7.0 | 0.00 | 0.00 | 0.00 | 33 | 1009.4 |
| 20260505212119 | 82 | 181 | 4.0 | 8.0 | 0.00 | 0.00 | 0.00 | 33 | 1009.4 |
| 20260505211615 | 82 | 165 | 4.0 | 6.0 | 0.00 | 0.00 | 0.00 | 33 | 1009.5 |
| 20260505211112 | 82 | 245 | 2.0 | 3.0 | 0.00 | 0.00 | 0.00 | 32 | 1009.5 |
| 20260505210609 | 82 | 142 | 4.0 | 7.0 | 0.00 | 0.00 | 0.00 | 32 | 1009.4 |
| 20260505210106 | 83 | 288 | 4.0 | 6.0 | 0.00 | 0.00 | 0.00 | 30 | 1009.3 |
| 20260505205603 | 83 | 219 | 2.0 | 4.0 | 0.00 | 0.00 | 0.00 | 30 | 1009.4 |
| 20260505205101 | 82 | 210 | 3.0 | 3.0 | 0.00 | 0.00 | 0.00 | 30 | 1009.3 |
| 20260505204558 | 83 | 250 | 8.0 | 13.0 | 0.00 | 0.00 | 0.00 | 29 | 1009.3 |
| 20260505204056 | 83 | 251 | 7.0 | 10.0 | 0.00 | 0.00 | 0.00 | 29 | 1009.3 |
| 20260505203551 | 83 | 214 | 5.0 | 6.0 | 0.00 | 0.00 | 0.00 | 30 | 1009.4 |
| 20260505203049 | 83 | 57 | 3.0 | 4.0 | 0.00 | 0.00 | 0.00 | 29 | 1009.1 |
| 20260505202545 | 83 | 231 | 4.0 | 8.0 | 0.00 | 0.00 | 0.00 | 29 | 1009.3 |
| 20260505202041 | 83 | 175 | 7.0 | 11.0 | 0.00 | 0.00 | 0.00 | 29 | 1009.1 |